TimeCDT,TemperatureF,Dew PointF,Humidity,Sea Level PressureIn,VisibilityMPH,Wind Direction,Wind SpeedMPH,Gust SpeedMPH,PrecipitationIn,Events,Conditions,WindDirDegrees,DateUTC
12:15 AM,45.5,28.0,51,30.03,10.0,ESE,11.5,-,N/A,,Clear,110,2014-05-05 05:15:00
12:35 AM,45.5,27.9,50,30.04,10.0,East,9.2,-,N/A,,Scattered Clouds,100,2014-05-05 05:35:00
12:55 AM,45.0,28.4,52,30.02,10.0,East,12.7,16.1,N/A,,Clear,90,2014-05-05 05:55:00
1:15 AM,45.0,29.5,55,30.00,10.0,East,12.7,-,N/A,,Scattered Clouds,90,2014-05-05 06:15:00
1:35 AM,44.8,30.6,57,30.00,10.0,East,8.1,-,N/A,Rain,Light Rain,100,2014-05-05 06:35:00
1:55 AM,45.1,29.7,55,29.99,10.0,East,9.2,-,N/A,,Mostly Cloudy,80,2014-05-05 06:55:00
2:15 AM,45.1,30.0,55,29.96,10.0,ENE,13.8,-,N/A,,Mostly Cloudy,70,2014-05-05 07:15:00
2:35 AM,45.0,29.7,55,29.95,10.0,East,15.0,25.3,N/A,,Clear,80,2014-05-05 07:35:00
2:55 AM,45.0,29.7,55,29.98,10.0,ESE,10.4,-,N/A,,Clear,110,2014-05-05 07:55:00
3:15 AM,43.3,30.2,60,29.93,10.0,ESE,12.7,-,N/A,,Clear,110,2014-05-05 08:15:00
3:35 AM,43.7,30.7,60,29.95,10.0,East,8.1,-,N/A,,Clear,100,2014-05-05 08:35:00
3:55 AM,44.1,30.7,59,29.94,10.0,East,12.7,-,N/A,Thunderstorm,Clear,90,2014-05-05 08:55:00
4:15 AM,44.2,31.5,61,29.96,10.0,East,8.1,-,N/A,,Scattered Clouds,90,2014-05-05 09:15:00
4:35 AM,44.6,31.1,59,29.95,10.0,East,10.4,-,N/A,,Overcast,80,2014-05-05 09:35:00
5:15 AM,44.2,32.0,62,29.96,10.0,NE,9.2,-,N/A,,Mostly Cloudy,50,2014-05-05 10:15:00
5:35 AM,43.9,32.5,64,29.98,10.0,NE,11.5,-,N/A,,Overcast,50,2014-05-05 10:35:00
5:55 AM,44.1,32.9,65,29.99,10.0,NE,12.7,-,N/A,,Overcast,40,2014-05-05 10:55:00
6:15 AM,44.1,33.3,66,29.98,10.0,ENE,15.0,-,N/A,,Overcast,60,2014-05-05 11:15:00
6:35 AM,44.1,33.4,66,29.99,10.0,ENE,15.0,-,N/A,,Mostly Cloudy,60,2014-05-05 11:35:00
6:55 AM,44.2,34.0,67,29.99,10.0,ENE,13.8,-,N/A,,Mostly Cloudy,60,2014-05-05 11:55:00
7:15 AM,44.8,34.3,67,29.99,10.0,ENE,16.1,-,N/A,,Mostly Cloudy,60,2014-05-05 12:15:00
7:35 AM,45.3,34.7,66,29.98,10.0,ENE,15.0,-,N/A,,Mostly Cloudy,60,2014-05-05 12:35:00
7:55 AM,47.1,35.1,63,29.98,10.0,ENE,13.8,20.7,N/A,,Clear,70,2014-05-05 12:55:00
8:15 AM,49.3,34.2,56,29.94,10.0,East,18.4,23.0,N/A,,Clear,80,2014-05-05 13:15:00
8:35 AM,51.4,33.4,50,29.95,10.0,East,17.3,25.3,N/A,,Clear,80,2014-05-05 13:35:00
8:55 AM,52.3,32.9,48,29.95,10.0,East,18.4,26.5,N/A,,Clear,80,2014-05-05 13:55:00
9:15 AM,53.6,34.2,48,29.96,10.0,ENE,20.7,-,N/A,,Clear,70,2014-05-05 14:15:00
9:35 AM,54.1,33.6,46,29.96,10.0,East,19.6,26.5,N/A,,Clear,80,2014-05-05 14:35:00
9:55 AM,55.6,33.3,43,29.96,10.0,East,15.0,25.3,N/A,,Clear,80,2014-05-05 14:55:00
10:15 AM,56.1,33.6,43,29.95,10.0,ENE,25.3,28.8,N/A,,Clear,60,2014-05-05 15:15:00
10:35 AM,57.6,32.9,39,29.95,10.0,ENE,21.9,29.9,N/A,,Clear,70,2014-05-05 15:35:00
10:55 AM,58.5,33.3,39,29.96,10.0,ENE,20.7,26.5,N/A,,Scattered Clouds,60,2014-05-05 15:55:00
11:15 AM,57.0,32.9,40,29.95,10.0,East,19.6,-,N/A,,Mostly Cloudy,80,2014-05-05 16:15:00
11:35 AM,59.4,31.8,35,29.95,10.0,ENE,24.2,29.9,N/A,,Scattered Clouds,60,2014-05-05 16:35:00
11:55 AM,60.1,31.6,34,29.95,10.0,ENE,21.9,29.9,N/A,,Clear,70,2014-05-05 16:55:00
12:15 PM,61.2,30.6,32,29.94,10.0,ENE,23.0,29.9,N/A,,Clear,60,2014-05-05 17:15:00
12:35 PM,61.0,28.9,30,29.94,10.0,ENE,23.0,33.4,N/A,,Clear,70,2014-05-05 17:35:00
12:55 PM,61.5,29.7,30,29.93,10.0,East,21.9,29.9,N/A,,Clear,80,2014-05-05 17:55:00
1:15 PM,60.8,30.9,32,29.94,10.0,East,19.6,28.8,N/A,,Clear,80,2014-05-05 18:15:00
1:55 PM,61.3,30.4,31,29.93,10.0,ENE,19.6,29.9,N/A,,Clear,70,2014-05-05 18:55:00
2:15 PM,61.3,29.8,30,29.92,10.0,ENE,18.4,-,N/A,,Clear,70,2014-05-05 19:15:00
2:35 PM,61.7,32.0,33,29.92,10.0,ENE,20.7,25.3,N/A,,Clear,70,2014-05-05 19:35:00
2:55 PM,61.5,30.9,32,29.93,10.0,ENE,18.4,26.5,N/A,,Clear,70,2014-05-05 19:55:00
3:15 PM,61.0,29.8,31,29.92,10.0,ENE,18.4,25.3,N/A,,Clear,60,2014-05-05 20:15:00
3:35 PM,61.2,29.7,30,29.91,10.0,ENE,19.6,24.2,N/A,,Clear,70,2014-05-05 20:35:00
3:55 PM,61.2,30.4,31,29.92,10.0,ENE,18.4,23.0,N/A,,Clear,70,2014-05-05 20:55:00
4:15 PM,61.2,31.3,32,29.92,10.0,ENE,18.4,24.2,N/A,,Clear,60,2014-05-05 21:15:00
4:35 PM,60.4,31.3,33,29.93,10.0,ENE,17.3,21.9,N/A,,Clear,60,2014-05-05 21:35:00
4:55 PM,59.9,30.0,32,29.93,10.0,East,15.0,21.9,N/A,,Clear,80,2014-05-05 21:55:00
5:15 PM,59.2,29.7,33,29.93,10.0,East,17.3,-,N/A,,Clear,80,2014-05-05 22:15:00
5:35 PM,58.8,30.0,34,29.93,10.0,East,16.1,23.0,N/A,,Clear,80,2014-05-05 22:35:00
5:55 PM,58.1,29.5,34,29.93,10.0,East,15.0,23.0,N/A,,Clear,80,2014-05-05 22:55:00
6:15 PM,58.1,30.6,35,29.93,10.0,ENE,16.1,19.6,N/A,,Clear,70,2014-05-05 23:15:00
6:35 PM,56.3,31.5,39,29.94,10.0,ENE,15.0,-,N/A,,Clear,70,2014-05-05 23:35:00
6:55 PM,55.6,30.7,39,29.94,10.0,ENE,15.0,-,N/A,,Clear,70,2014-05-05 23:55:00
7:15 PM,53.8,30.9,42,29.95,10.0,ENE,13.8,-,N/A,,Clear,70,2014-05-06 00:15:00
7:35 PM,52.7,30.6,43,29.95,10.0,ENE,12.7,-,N/A,,Clear,70,2014-05-06 00:35:00
7:55 PM,51.6,31.6,46,29.95,10.0,ENE,12.7,-,N/A,,Clear,60,2014-05-06 00:55:00
8:15 PM,50.7,32.0,49,29.96,10.0,NE,11.5,-,N/A,,Clear,50,2014-05-06 01:15:00
8:35 PM,49.6,32.0,51,29.95,10.0,NE,15.0,-,N/A,,Clear,50,2014-05-06 01:35:00
8:55 PM,49.1,32.0,52,29.95,10.0,NE,12.7,-,N/A,,Clear,50,2014-05-06 01:55:00
9:15 PM,48.2,32.0,54,29.96,10.0,NE,16.1,-,N/A,,Clear,50,2014-05-06 02:15:00
9:35 PM,47.3,32.4,56,29.97,10.0,ENE,15.0,-,N/A,,Clear,60,2014-05-06 02:35:00
9:55 PM,46.6,33.6,61,29.97,10.0,NE,15.0,-,N/A,,Clear,50,2014-05-06 02:55:00
10:15 PM,45.5,34.2,65,29.96,10.0,ENE,18.4,-,N/A,,Clear,60,2014-05-06 03:15:00
10:35 PM,44.6,34.0,66,29.97,10.0,NE,13.8,-,N/A,,Clear,50,2014-05-06 03:35:00
10:55 PM,43.9,34.0,68,29.98,10.0,ENE,11.5,-,N/A,,Clear,60,2014-05-06 03:55:00
11:35 PM,42.8,33.3,69,29.99,10.0,ENE,12.7,-,N/A,,Clear,60,2014-05-06 04:35:00
11:55 PM,42.4,33.4,70,29.98,10.0,ENE,15.0,-,N/A,,Clear,60,2014-05-06 04:55:00